Stations météo

Publicité
Nantes, France (7222): Température de l'air & dewpoint: 10.02.2019 08:00:00 - 16.02.2019 08:00:00 (CET)Nantes, France (7222): Température de l'air 5cm: 10.02.2019 08:00:00 - 16.02.2019 08:00:00 (CET)Nantes, France (7222): Température de l'air -20cm & Température de l'air -100cm: 10.02.2019 08:00:00 - 16.02.2019 08:00:00 (CET)Nantes, France (7222): Vitesse du vent & gusts: 10.02.2019 08:00:00 - 16.02.2019 08:00:00 (CET)Nantes, France (7222): Direction du vent: 10.02.2019 08:00:00 - 16.02.2019 08:00:00 (CET)Nantes, France (7222): reduced air pressure: 10.02.2019 08:00:00 - 16.02.2019 08:00:00 (CET)Nantes, France (7222): visibility: 10.02.2019 08:00:00 - 16.02.2019 08:00:00 (CET)Nantes, France (7222): Ensoleillement: 10.02.2019 08:00:00 - 16.02.2019 08:00:00 (CET)Nantes, France (7222): Quantités de précipitations: 10.02.2019 08:00:00 - 16.02.2019 08:00:00 (CET)
Date & Time tt [°C] td [°C] tt 5cm [°C] tt -20cm [°C] tt -100cm [°C] ff [km/h] ff [knt] fx [km/h] fx [knt] dd ppp [hPa] vv [km] sd [min] rr [mm]
16.02.2019 08:00:00 - - - - - - - - - - - - - -
16.02.2019 07:00:00 2,3 2,0 -2,5 7,9 9,7 5 3 14 8 SSE 1026,1 2,5 0 0,0
16.02.2019 06:00:00 2,8 2,5 -2,3 8,0 9,7 4 2 12 7 SE 1025,9 1,4 0 0,0
16.02.2019 05:00:00 2,6 2,3 -4,0 8,0 9,6 3 1 9 5 E 1025,8 0,3 0 0,0
16.02.2019 04:00:00 2,0 1,6 -3,6 8,1 9,7 2 1 5 3 S 1026,1 0,1 0 0,0
16.02.2019 03:00:00 3,8 3,4 -2,3 8,2 9,7 2 1 7 4 WNW 1026,4 1,6 0 0,0
16.02.2019 02:00:00 4,0 3,6 -3,0 8,2 9,7 3 2 6 4 ESE 1026,8 0,6 0 0,0
16.02.2019 01:00:00 3,5 2,8 -3,5 8,3 9,7 0 0 4 2 N 1027,0 0,6 0 0,0
16.02.2019 00:00:00 3,9 2,9 -2,9 8,4 9,7 2 1 4 2 W 1026,9 0,2 0 0,0
15.02.2019 23:00:00 4,9 3,7 -2,4 8,4 9,7 0 0 5 3 N 1026,7 6 0 0,0
15.02.2019 22:00:00 6,0 4,2 -2,4 8,4 9,7 0 0 8 4 N 1026,6 10 0 0,0
15.02.2019 21:00:00 7,7 5,2 -0,9 8,4 9,7 9 5 14 8 SE 1026,5 7 0 0,0
15.02.2019 20:00:00 8,7 5,3 -0,8 8,3 9,7 5 3 16 9 S 1026,6 19 0 0,0
15.02.2019 19:00:00 10,7 5,7 1,3 8,2 9,7 9 5 14 8 SE 1026,3 20 0 0,0
15.02.2019 18:00:00 14,7 6,0 11,5 8,0 9,7 9 5 16 8 S 1025,8 33 58 0,0
15.02.2019 17:00:00 16,1 6,8 20,2 7,9 9,7 8 5 22 12 SSE 1025,7 19 60 0,0
15.02.2019 16:00:00 16,0 6,1 20,9 7,7 9,7 11 6 25 14 SE 1025,9 34 60 0,0
15.02.2019 15:00:00 15,9 6,6 21,3 7,6 9,7 9 5 23 12 SE 1026,2 17 60 0,0
15.02.2019 14:00:00 15,2 6,2 19,8 7,5 9,7 10 6 21 11 SE 1026,6 30 60 0,0
15.02.2019 13:00:00 14,0 6,4 18,0 7,5 9,7 13 7 23 12 ESE 1027,4 28 60 0,0
15.02.2019 12:00:00 12,0 5,2 15,2 7,5 9,7 15 8 28 15 SE 1027,7 37 60 0,0
15.02.2019 11:00:00 10,5 5,3 11,9 7,5 9,7 19 10 30 16 SE 1027,6 20 60 0,0
15.02.2019 10:00:00 8,0 4,0 3,4 7,5 9,7 14 8 24 13 ESE 1027,9 20 60 0,0
15.02.2019 09:00:00 5,6 2,9 0,0 7,6 9,7 11 6 23 12 ESE 1027,8 19 25 0,0
15.02.2019 08:00:00 4,2 1,7 -2,5 7,7 9,7 5 3 11 6 ESE 1027,5 20 0 0,0
15.02.2019 07:00:00 4,1 1,3 -1,4 7,8 9,7 3 2 18 10 ENE 1027,5 20 0 0,0
15.02.2019 06:00:00 4,4 1,4 -1,7 7,8 9,7 10 5 16 8 E 1027,7 17 0 0,0
15.02.2019 05:00:00 2,8 0,0 -2,6 7,8 9,7 5 3 9 5 NE 1027,6 14 0 0,0
15.02.2019 04:00:00 3,9 1,1 -2,0 7,9 9,7 5 3 8 4 NE 1027,6 16 0 0,0
15.02.2019 03:00:00 5,1 1,4 0,1 8,0 9,7 4 2 13 7 ENE 1027,7 17 0 0,0
15.02.2019 02:00:00 5,0 1,8 -1,7 8,0 9,7 8 4 12 7 ENE 1028,0 13 0 0,0
15.02.2019 01:00:00 3,9 0,8 -1,5 8,0 9,7 5 3 8 4 NE 1028,2 14 0 0,0
15.02.2019 00:00:00 6,2 3,0 -0,5 8,1 9,7 4 2 18 10 ENE 1028,1 14 0 0,0
14.02.2019 23:00:00 7,5 3,7 3,5 8,1 9,7 10 5 19 11 E 1028,2 16 0 0,0
14.02.2019 22:00:00 8,1 4,3 3,8 8,1 9,7 12 6 21 11 E 1028,3 16 0 0,0
14.02.2019 21:00:00 8,9 4,7 0,7 8,1 9,7 10 5 16 9 E 1028,4 16 0 0,0
14.02.2019 20:00:00 9,4 5,4 -1,0 8,0 9,7 10 5 18 10 E 1028,6 17 0 0,0
14.02.2019 19:00:00 9,4 5,0 0,2 7,9 9,7 7 4 15 8 ESE 1028,5 27 0 0,0
14.02.2019 18:00:00 12,6 5,5 10,7 7,8 9,8 11 6 22 12 SE 1028,3 35 54 0,0
14.02.2019 17:00:00 14,2 5,8 17,3 7,7 9,7 17 9 26 14 SE 1028,5 38 60 0,0
14.02.2019 16:00:00 14,2 5,3 18,4 7,6 9,7 18 10 26 14 SE 1028,7 44 60 0,0
14.02.2019 15:00:00 13,8 5,4 18,4 7,5 9,7 14 8 27 15 SE 1029,2 38 60 0,0
14.02.2019 14:00:00 13,4 6,0 17,1 7,4 9,7 16 8 26 14 SE 1029,8 24 60 0,0
14.02.2019 13:00:00 12,2 5,6 15,7 7,3 9,7 18 10 34 18 SE 1030,6 20 60 0,0
14.02.2019 12:00:00 10,5 5,0 13,4 7,4 9,7 18 10 42 23 SE 1031,1 20 60 0,0
14.02.2019 11:00:00 8,6 3,8 9,9 7,4 9,7 22 12 35 19 SE 1031,3 20 60 0,0
14.02.2019 10:00:00 6,6 2,3 0,6 7,5 9,7 16 9 29 16 SE 1031,5 20 60 0,0
14.02.2019 09:00:00 3,2 0,3 -2,9 7,6 9,8 10 5 21 12 E 1031,3 20 23 0,0
14.02.2019 08:00:00 1,7 -0,6 -3,0 7,6 9,8 4 2 11 6 ENE 1030,9 17 0 0,0
14.02.2019 07:00:00 1,8 -0,3 -3,5 7,7 9,8 4 2 8 5 NE 1030,9 13 0 0,0
14.02.2019 06:00:00 1,7 0,1 -2,2 7,8 9,8 5 3 10 6 NE 1031,0 9 0 0,0
14.02.2019 05:00:00 1,9 0,6 -3,6 7,9 9,8 8 4 11 6 ENE 1030,9 9 0 0,0
14.02.2019 04:00:00 2,0 0,7 -3,3 7,9 9,8 6 3 10 6 NE 1031,2 10 0 0,0
14.02.2019 03:00:00 1,3 -0,2 -2,7 8,0 9,8 6 3 10 5 NE 1031,4 10 0 0,0
14.02.2019 02:00:00 3,0 0,7 -0,9 8,0 9,8 3 2 14 7 NNE 1031,4 13 0 0,0
14.02.2019 01:00:00 3,5 0,7 0,3 8,1 9,8 9 5 15 8 E 1031,8 14 0 0,0
14.02.2019 00:00:00 4,0 0,9 0,3 8,1 9,8 10 5 14 8 E 1031,8 11 0 0,0
13.02.2019 23:00:00 4,8 1,1 0,7 8,2 9,8 8 4 12 6 ENE 1032,0 15 0 0,0
13.02.2019 22:00:00 5,8 1,5 0,4 8,2 9,8 9 5 11 6 ENE 1031,8 15 0 0,0
13.02.2019 21:00:00 6,6 1,5 0,9 8,2 9,8 9 5 13 7 ENE 1031,8 19 0 0,0
13.02.2019 20:00:00 7,1 1,8 0,5 8,2 9,8 8 4 13 7 ENE 1031,8 18 0 0,0
13.02.2019 19:00:00 8,3 1,0 3,7 8,1 9,8 10 5 18 10 ENE 1031,6 32 0 0,0
13.02.2019 18:00:00 10,0 0,8 7,7 8,0 9,8 10 6 27 15 E 1031,5 18 50 0,0
13.02.2019 17:00:00 - - 13,7 7,9 9,8 17 9 29 16 ENE - 40 60 0,0
13.02.2019 16:00:00 11,7 1,0 17,1 7,8 9,7 12 7 27 14 ENE 1031,7 36 60 0,0
13.02.2019 15:00:00 11,5 1,1 18,4 7,7 9,8 12 7 23 13 NE 1032,0 19 60 0,0
13.02.2019 14:00:00 10,9 2,5 15,6 7,7 9,8 13 7 26 14 E 1032,4 33 60 0,0
13.02.2019 13:00:00 9,6 2,4 13,5 7,7 9,8 18 10 29 16 E 1033,2 16 60 0,0
13.02.2019 12:00:00 8,2 2,6 12,2 7,7 9,8 16 9 29 16 E 1033,9 15 60 0,0
13.02.2019 11:00:00 5,9 2,2 7,7 7,8 9,8 14 7 29 15 E 1034,3 5 60 0,0
13.02.2019 10:00:00 4,2 1,4 1,7 7,8 9,8 13 7 19 10 E 1034,5 4,7 60 0,0
13.02.2019 09:00:00 3,0 1,2 -0,2 7,9 9,8 13 7 19 11 ENE 1034,4 8 21 0,0
13.02.2019 08:00:00 2,3 1,0 -0,6 8,0 9,8 11 6 16 8 ENE 1034,3 10 0 0,0
13.02.2019 07:00:00 2,3 1,1 -3,6 8,0 9,8 10 6 13 7 ENE 1034,3 11 0 0,0
13.02.2019 06:00:00 1,3 0,4 -3,8 8,1 9,8 5 3 8 4 NE 1034,4 9 0 0,0
13.02.2019 05:00:00 1,9 0,6 -3,2 8,1 9,8 3 2 7 4 NE 1034,2 9 0 0,0
13.02.2019 04:00:00 2,7 1,1 -1,7 8,2 9,8 2 1 15 8 NE 1034,6 11 0 0,0
13.02.2019 03:00:00 3,2 1,7 -2,9 8,3 9,8 4 2 8 4 ENE 1034,8 9 0 0,0
13.02.2019 02:00:00 3,0 1,0 -2,0 8,4 9,8 0 0 9 5 N 1035,0 12 0 0,0
13.02.2019 01:00:00 4,4 2,1 0,6 8,4 9,8 8 5 12 7 E 1035,2 9 0 0,0
13.02.2019 00:00:00 4,7 2,2 0,8 8,5 9,8 5 3 12 6 E 1035,3 12 0 0,0
12.02.2019 23:00:00 5,6 2,6 0,3 8,5 9,8 7 4 14 8 ENE 1035,5 15 0 0,0
12.02.2019 22:00:00 6,1 2,9 1,0 8,5 9,8 9 5 15 8 ESE 1035,3 16 0 0,0
12.02.2019 21:00:00 6,9 3,1 1,1 8,5 9,8 11 6 15 8 E 1035,4 17 0 0,0
12.02.2019 20:00:00 8,2 3,6 0,1 8,4 9,8 10 5 19 10 E 1035,7 19 0 0,0
12.02.2019 19:00:00 9,1 3,5 0,4 8,3 9,8 5 3 14 8 NE 1035,2 44 0 0,0
12.02.2019 18:00:00 10,8 4,0 8,7 8,2 9,8 9 5 21 11 E 1034,7 19 54 0,0
12.02.2019 17:00:00 12,7 4,1 18,2 8,0 9,8 8 4 19 10 NE 1034,8 19 60 0,0
12.02.2019 16:00:00 13,0 3,6 20,9 7,9 9,8 4 2 17 9 WNW 1035,0 32 60 0,0
12.02.2019 15:00:00 12,9 4,1 20,0 7,8 9,8 5 3 16 8 W 1035,0 19 60 0,0
12.02.2019 14:00:00 12,7 4,1 21,0 7,7 9,8 6 3 13 7 SW 1035,5 20 60 0,0
12.02.2019 13:00:00 12,2 4,2 18,7 7,7 9,8 3 2 11 6 S 1036,2 42 60 0,0
12.02.2019 12:00:00 10,4 4,7 13,0 7,7 9,8 4 2 10 6 S 1036,5 20 60 0,0
12.02.2019 11:00:00 7,0 4,3 7,2 7,8 9,8 9 5 12 6 S 1036,3 20 60 0,0
12.02.2019 10:00:00 3,7 2,5 -0,5 7,9 9,8 7 4 16 9 SSE 1036,2 15 46 0,2
12.02.2019 09:00:00 1,3 1,0 -4,6 8,0 9,8 6 4 12 6 SE 1036,0 16 12 0,0
12.02.2019 08:00:00 -0,5 -0,9 -5,7 8,1 9,8 0 0 10 5 N 1035,8 3,2 0 0,0
12.02.2019 07:00:00 0,2 -0,2 -5,6 8,2 9,8 0 0 6 4 N 1035,4 13 0 0,0
12.02.2019 06:00:00 0,8 0,2 -5,2 8,3 9,8 3 1 7 4 S 1035,3 15 0 0,0
12.02.2019 05:00:00 1,0 0,4 -5,2 8,3 9,8 3 1 6 3 E 1035,0 16 0 0,0
12.02.2019 04:00:00 1,6 0,7 -4,6 8,4 9,8 3 2 10 5 ESE 1034,8 16 0 0,0
12.02.2019 03:00:00 1,8 1,2 -4,0 8,5 9,8 3 2 10 5 NE 1035,0 8 0 0,0
12.02.2019 02:00:00 2,0 1,4 -4,5 8,6 9,8 5 3 8 4 E 1034,7 7 0 0,0
12.02.2019 01:00:00 1,8 1,1 -4,0 8,6 9,8 0 0 5 3 N 1034,6 7 0 0,0
12.02.2019 00:00:00 2,5 1,6 -3,7 8,7 9,8 2 1 3 2 ENE 1034,4 4,9 0 0,0
11.02.2019 23:00:00 3,2 2,0 -2,9 8,8 9,8 0 0 5 3 N 1034,4 13 0 0,0
11.02.2019 22:00:00 4,6 2,8 -2,5 8,8 9,8 5 3 10 5 NNE 1033,6 14 0 0,0
11.02.2019 21:00:00 5,2 3,4 -2,0 8,8 9,8 3 1 5 3 W 1033,2 19 0 0,0
11.02.2019 20:00:00 5,9 3,6 -1,5 8,7 9,8 2 1 5 3 WSW 1032,8 20 0 0,0
11.02.2019 19:00:00 7,2 3,4 0,6 8,7 9,8 3 2 10 6 NW 1032,1 28 0 0,0
11.02.2019 18:00:00 9,5 4,7 7,5 8,6 9,8 5 3 11 6 N 1031,0 43 3 0,0
11.02.2019 17:00:00 10,9 5,4 11,2 8,6 9,8 6 3 21 11 NNE 1030,4 47 7 0,0
11.02.2019 16:00:00 11,2 4,4 11,3 8,5 9,8 12 6 25 13 NW 1029,8 55 0 0,0
11.02.2019 15:00:00 11,2 5,3 11,6 8,4 9,8 16 8 35 19 WNW 1029,3 50 7 0,0
11.02.2019 14:00:00 11,6 4,6 15,2 8,3 9,8 16 9 38 20 WNW 1028,8 41 46 0,0
11.02.2019 13:00:00 11,3 5,8 13,0 8,4 9,8 20 11 38 21 WNW 1028,9 19 35 0,0
11.02.2019 12:00:00 10,5 5,7 11,1 8,3 9,8 21 12 41 22 NW 1028,4 20 17 0,0
11.02.2019 11:00:00 9,4 5,2 8,0 8,4 9,8 18 10 35 19 WNW 1027,5 20 0 0,0
11.02.2019 10:00:00 8,4 5,1 4,6 8,5 9,7 24 13 36 19 WNW 1026,6 19 24 0,0
11.02.2019 09:00:00 6,4 4,1 1,2 8,6 9,8 15 8 24 13 W 1025,8 20 17 0,0
11.02.2019 08:00:00 5,0 2,7 0,1 8,6 9,8 11 6 22 12 W 1024,6 20 0 0,0
11.02.2019 07:00:00 4,1 2,1 -0,7 8,7 9,8 12 7 18 10 W 1023,7 39 0 0,0
11.02.2019 06:00:00 3,8 1,8 -0,4 8,8 9,7 10 5 20 11 W 1023,6 44 0 0,0
11.02.2019 05:00:00 4,2 2,9 -1,4 8,9 9,8 10 6 16 9 W 1022,9 20 0 0,0
11.02.2019 04:00:00 4,3 2,6 -1,0 8,9 9,8 10 5 18 10 W 1022,8 38 0 0,0
11.02.2019 03:00:00 4,4 2,7 -0,5 9,0 9,7 10 5 16 8 W 1022,3 43 0 0,0
11.02.2019 02:00:00 4,9 2,6 0,6 9,1 9,7 8 4 20 11 W 1021,8 53 0 0,0
11.02.2019 01:00:00 5,8 2,6 1,7 9,1 9,7 15 8 24 13 W 1021,0 60 0 0,0
11.02.2019 00:00:00 5,5 2,1 2,2 9,2 9,7 13 7 23 13 W 1020,1 46 0 0,0
10.02.2019 23:00:00 6,2 1,9 3,2 9,2 9,7 16 9 33 18 W 1019,6 57 0 0,0
10.02.2019 22:00:00 6,9 2,4 3,8 9,3 9,7 19 10 33 18 W 1018,7 42 0 0,0
10.02.2019 21:00:00 7,5 1,8 4,8 9,3 9,7 19 10 40 21 W 1018,0 60 0 0,0
10.02.2019 20:00:00 7,9 1,5 5,4 9,3 9,7 22 12 44 24 W 1017,0 57 0 0,0
10.02.2019 19:00:00 8,6 2,8 6,6 9,3 9,7 24 13 42 23 W 1015,5 44 0 0,0
10.02.2019 18:00:00 9,1 3,7 7,6 9,3 9,7 26 14 53 29 W 1014,5 40 53 0,0
10.02.2019 17:00:00 10,2 2,5 9,8 9,3 9,7 35 19 56 31 W 1013,5 43 49 0,0
10.02.2019 16:00:00 10,0 3,9 9,5 9,3 9,7 37 20 65 35 WNW 1012,4 49 5 0,0
10.02.2019 15:00:00 10,1 4,9 9,2 9,3 9,7 40 22 74 40 W 1010,9 33 35 0,0
10.02.2019 14:00:00 9,4 5,2 6,1 9,3 9,7 37 20 93 50 W 1009,5 20 37 0,6
10.02.2019 13:00:00 10,1 4,2 7,7 9,3 9,7 37 20 74 40 W 1008,6 20 32 0,0
10.02.2019 12:00:00 8,8 4,8 8,3 9,3 9,6 36 19 56 30 W 1007,5 19 21 0,0
10.02.2019 11:00:00 8,2 4,2 7,9 9,3 9,7 32 17 69 37 W 1006,1 41 29 0,0
10.02.2019 10:00:00 7,7 5,8 6,7 9,3 9,7 25 13 49 26 WSW 1004,2 19 0 0,6
10.02.2019 09:00:00 7,6 6,5 6,6 9,3 9,7 18 10 56 31 WSW 1003,0 60 0 0,4
10.02.2019 08:00:00 8,4 7,2 7,4 9,3 9,7 21 11 39 21 SW 1001,5 20 0 0,8

tt = Température de l'air
td = dewpoint
tt 5cm = Température de l'air 5cm
tt -20cm = Température de l'air -20cm
tt -100cm = Température de l'air -100cm
ff = Vitesse du vent
fx = gusts
dd = Direction du vent
ppp = reduced air pressure
vv = visibility
sd = Ensoleillement
rr = Quantités de précipitations

stations d'obs. à proximité